Find Starlink 2336

NORAD ID: 47879 Int'l Des: 2021-021 Owner: SPXS Country: US Constellation: starlink operational
LEOCIRCULAR

現在のビュー

3D地球を読み込み中...

About Starlink 2336

Starlink 2336 (NORAD 47879) is a starlink constellation satellite (v1.0) launched Mar 14, 2021 by SPXS of US. It operates in LEO, CIRCULAR orbit with a mass of 260.00 kg.

Starlink 2336について

説明を読み込み中...

次回通過

Passes for default location (London). Set your location on the main map for personalized predictions.

高度履歴

Loading altitude history...

軌道要素

1 47879U 21021V 26169.26691178 .00030142 00000-0 46506-3 0 9999
2 47879 53.1536 161.3406 0005251 9.8055 350.3058 15.53901462291812
Epoch: Jun 18, 2026 • Age: 13 hours

現在のステータス

高度 422.2 km
速度 7.66 km/s
衛星直下点 -43.29°S, 179.52°E
打ち上げ日 Mar 14, 2021
運用期間 5.2 years
タイプ internet

技術仕様

分類 Payload
質量 260.00 kg
乾燥質量 248.00 kg
総質量 260.00 kg
長さ 0.20 m
直径 2.80 m
スパン 9.00 m
形状 Box + pan
製造者 SPXS
バスタイプ Starlink
フェーズステータス In Orbit
所有者/国 SPXS/US

Most Searched